Location: Unspecified
(49.2170°N, 0.0000°E)
Time: 02:32:24
(UTC+00:00)

Transit 2A - Pass Details

Date: 18 June 2019
Orbit: 595 x 964 km, 66.7° (Epoch: 22 July)

Event Time Altitude Azimuth Distance (km) Brightness Sun altitude
Exits shadow 02:42:51 - 243° (WSW) 2,912 8.4 -8.9°
Reaches altitude 10° 02:43:28 10° 245° (WSW) 2,700 8.3 -8.9°
Maximum altitude 02:49:32 44° 317° (NW) 1,291 7.3 -8.3°
Drops below altitude 10° 02:55:28 10° 29° (NNE) 2,628 10.4 -7.7°
Sets 02:58:04 0° 36° (NE) 3,531 12.0 -7.4°
